My Profile
  1. Member Settings
  2. My Devices
  3. Sign Out
        More Settings
      Elev 804 ft, 44.534 °N 18.687 °E

      Tuzla, BA

      Summary

      Temperature (°F)MaxAverageMin
      Max Temperature9881.6958
      Avg Temperature79.3570.0458
      Min Temperature6759.5351
      Precipitation (in)MaxAverageMinSum
      Precipitation0000
      Dew Point (°F)MaxAverageMin
      Dew Point65.8960.1349.77
      Wind (mph)MaxAverageMin
      Wind135.812
      Gust Wind---
      Sea Level Pressure (in)MaxAverageMin
      Sea Level Pressure29.1328.9528.78

      Daily Observations

      DateTemp High/LowDew Pt High/LowHumidityWindMax WindWind GustPressurePrecip.Condition
      8/1/2022 83 °F / 53 °F 60 °F / 52 °F 63 % 7 mph - 28.98 in 0 in
      8/2/2022 86 °F / 57 °F 62 °F / 53 °F 65 % 7 mph - 29 in 0 in
      8/3/2022 89 °F / 58 °F 61 °F / 52 °F 63 % 7 mph - 29.02 in 0 in
      8/4/2022 92 °F / 58 °F 59 °F / 50 °F 55 % 7 mph - 29.01 in 0 in
      8/5/2022 96 °F / 58 °F 58 °F / 49 °F 49 % 7 mph - 28.95 in 0 in
      8/6/2022 95 °F / 59 °F 65 °F / 50 °F 50 % 7 mph - 28.93 in 0 in
      8/7/2022 85 °F / 68 °F 64 °F / 56 °F 64 % 7 mph - 29.02 in 0 in
      8/8/2022 88 °F / 61 °F 66 °F / 59 °F 67 % 7 mph - 29.02 in 0 in
      8/9/2022 68 °F / 63 °F 67 °F / 61 °F 95 % 4 mph - 29.13 in 0 in
      8/10/2022 74 °F / 64 °F 65 °F / 63 °F 89 % 4 mph - 29.12 in 0 in
      8/11/2022 81 °F / 58 °F 64 °F / 44 °F 68 % 7 mph - 29.06 in 0 in
      8/12/2022 83 °F / 51 °F 52 °F / 45 °F 70 % 7 mph - 29 in 0 in
      8/13/2022 73 °F / 58 °F 64 °F / 57 °F 85 % 4 mph - 28.9 in 0 in
      8/14/2022 79 °F / 58 °F 63 °F / 58 °F 82 % 4 mph - 28.84 in 0 in
      8/15/2022 88 °F / 56 °F 64 °F / 51 °F 68 % 7 mph - 28.78 in 0 in
      8/16/2022 87 °F / 58 °F 64 °F / 58 °F 76 % 13 mph - 28.85 in 0 in
      8/17/2022 90 °F / 58 °F 63 °F / 58 °F 69 % 7 mph - 28.91 in 0 in
      8/18/2022 98 °F / 60 °F 66 °F / 53 °F 64 % 4 mph - 28.9 in 0 in
      8/19/2022 91 °F / 64 °F 69 °F / 60 °F 68 % 13 mph - 28.83 in 0 in
      8/20/2022 73 °F / 64 °F 67 °F / 63 °F 94 % 4 mph - 28.84 in 0 in
      8/21/2022 66 °F / 63 °F 65 °F / 61 °F 96 % 4 mph - 28.84 in 0 in
      8/22/2022 70 °F / 62 °F 63 °F / 57 °F 88 % 7 mph - 28.83 in 0 in
      8/23/2022 67 °F / 60 °F 64 °F / 59 °F 92 % 2 mph - 28.92 in 0 in
      8/24/2022 69 °F / 62 °F 66 °F / 62 °F 94 % 4 mph - 29 in 0 in
      8/25/2022 82 °F / 60 °F 67 °F / 60 °F 82 % 7 mph - 28.97 in 0 in
      8/26/2022 85 °F / 60 °F 69 °F / 60 °F 81 % 4 mph - 28.88 in 0 in
      8/27/2022 90 °F / 61 °F 68 °F / 60 °F 75 % 4 mph - 28.85 in 0 in
      8/28/2022 87 °F / 59 °F 69 °F / 59 °F 75 % 4 mph - 28.92 in 0 in
      8/29/2022 81 °F / 61 °F 67 °F / 61 °F 83 % 7 mph - 29.02 in 0 in
      8/30/2022 79 °F / 61 °F 69 °F / 61 °F 87 % 4 mph - 29.01 in 0 in
      8/31/2022 81 °F / 59 °F 66 °F / 59 °F 81 % 4 mph - 28.96 in 0 in
      essentialaccessibility.com
      We recognize our responsibility to use data and technology for good. We may use or share your data with our data vendors. Take control of your data.
      Glossary